Tracking 23762 objects as of 22-Oct-2021
HD Live streaming from Space Station
objects crossing your sky now

SL-6 R/B(2)

Track SL-6 R/B(2) now!


NORAD ID: 22241
Int'l Code: 1992-081D
Perigee: 4,444.9 km
Apogee: 35,429.0 km
Inclination: 68.9 °
Period: 707.8 minutes
Semi major axis: 26307 km
RCS: 5.1164 m2 (large)
Launch date: November 25, 1992
Source: Commonwealth of Independent States (former USSR) (CIS)
Launch site: PLESETSK MISSILE AND SPACE COMPLEX (PKMTR)

Note: This is a ROCKET BODY
aabbcc
Your satellite tracking list
Your tracking list is empty




NASA's NSSDC Master Catalog

Two Line Element Set (TLE):
1 22241U 92081D   21295.47932128 -.00000691  00000-0  00000-0 0  9993
2 22241  68.8983 125.8311 5888723  65.1565 343.9254  2.03456979214760
Source of the keplerian elements: AFSPC